User: anonymous   Login
Location: Unspecified
(0.0000°N, 0.0000°E)
Time: 19:35:50
(UTC+01:00)
Language:

Landsat 4 - Orbit

View from above orbital plane
View from above orbital plane
View from above satellite
View from above satellite

Ground track
Ground track

The orbit data is extracted from the following two-line orbital elements,

1 13367U 82072A   18019.70529383 +.00000523 +00000-0 +31114-4 0  9999
2 13367 098.2610 206.4146 0013119 179.0843 244.0532 15.16220369343148
Epoch (UTC): 19 January 2018 16:55:37
Eccentricity: 0.0013119
inclination: 98.2610°
perigee height: 508 km
apogee height: 526 km
right ascension of ascending node: 206.4146°
argument of perigee: 179.0843°
revolutions per day: 15.16220369
mean anomaly at epoch: 244.0532°
orbit number at epoch: 34314

The dashed part of the orbit path shows where the satellite is in the earth's shadow,  

DLR